User: anonymous   Login
Location: Meanaryar
(48.4161°N, 4.7315°W)
Time: 14:47:03
(UTC+00:00)
Language:

Cosmos 1125 Rocket - Orbit

View from above orbital plane
View from above orbital plane
View from above satellite
View from above satellite

Ground track
Ground track

The orbit data is extracted from the following two-line orbital elements,

1 11511U 79078B   21173.87961124 -.00000006  00000-0  69392-5 0  9993
2 11511  74.0353 139.1592 0015104  20.4467 339.7287 14.36929255188986
Epoch (UTC): 22 June 2021 21:06:38
Eccentricity: 0.0015104
inclination: 74.0353°
perigee height: 758 km
apogee height: 779 km
right ascension of ascending node: 139.1592°
argument of perigee: 20.4467°
revolutions per day: 14.36929255
mean anomaly at epoch: 339.7287°
orbit number at epoch: 18898

The dashed part of the orbit path shows where the satellite is in the earth's shadow,  

DLR